KC0VVH Weather Reports


time (UTC)temp
F
wind
direction
speed
knots
gust
knots
rain 1hr
in
rain 24hr
in
rain mn
in
humidity
%
barometer
mb
20260510063603 60 0 0.0 0.0 0.00 0.00 0.00 27 1017.9
20260510062703 61 0 0.0 0.0 0.00 0.00 0.00 24 1017.9
20260510061803 62 0 0.0 0.0 0.00 0.00 0.00 24 1017.9
20260510060903 63 11 0.0 1.7 0.00 0.00 0.00 21 1017.9
20260510060024 64 11 0.0 1.7 0.00 0.00 0.00 19 1017.9
20260510055403 64 0 0.0 0.0 0.00 0.00 0.00 17 1017.9
20260510054503 64 0 0.0 0.0 0.00 0.00 0.00 15 1017.9
20260510053624 66 0 0.0 0.0 0.00 0.00 0.00 13 1017.9
20260510052703 67 15 0.9 9.6 0.00 0.00 0.00 11 1017.9
20260510051803 69 303 0.9 5.2 0.00 0.00 0.00 9 1017.9
20260510050903 70 286 1.7 10.4 0.00 0.00 0.00 8 1017.9
20260510050003 70 302 1.7 9.6 0.00 0.00 0.00 8 1017.9
20260510045403 70 305 0.9 7.0 0.00 0.00 0.00 8 1017.9
20260510044503 70 299 0.0 6.1 0.00 0.00 0.00 8 1017.9
20260510043624 70 263 0.0 4.3 0.00 0.00 0.00 7 1017.9
20260510042703 71 291 1.7 10.4 0.00 0.00 0.00 7 1017.9
20260510041824 71 277 1.7 10.4 0.00 0.00 0.00 6 1017.9
20260510040924 72 288 1.7 9.6 0.00 0.00 0.00 6 1017.9
20260510040003 72 296 0.9 5.2 0.00 0.00 0.00 6 1017.9
20260510035403 72 276 0.9 11.3 0.00 0.00 0.00 6 1017.9
20260510034503 72 291 0.9 7.8 0.00 0.00 0.00 5 1017.9
20260510033603 73 298 1.7 13.0 0.00 0.00 0.00 5 1017.9
20260510032724 73 282 2.6 12.2 0.00 0.00 0.00 5 1017.9
20260510031803 72 301 0.9 7.8 0.00 0.00 0.00 4 1017.9
20260510030903 73 298 1.7 8.7 0.00 0.00 0.00 4 1017.9
20260510030003 74 289 1.7 12.2 0.00 0.00 0.00 5 1017.9
20260510025403 74 305 1.7 12.2 0.00 0.00 0.00 5 1017.9
20260510024503 74 300 1.7 10.4 0.00 0.00 0.00 5 1017.9
20260510023603 75 294 0.9 7.8 0.00 0.00 0.00 6 1017.9
20260510022703 75 303 1.7 7.8 0.00 0.00 0.00 6 1017.9
20260510021824 76 301 1.7 11.3 0.00 0.00 0.00 6 1017.9
20260510020903 76 275 0.9 11.3 0.00 0.00 0.00 5 1017.9
20260510020003 76 23 0.0 2.6 0.00 0.00 0.00 5 1017.9
20260510015403 76 23 0.0 2.6 0.00 0.00 0.00 4 1017.9
20260510014503 76 23 0.0 2.6 0.00 0.00 0.00 4 1017.9
20260510013624 76 0 0.0 1.7 0.00 0.00 0.00 5 1017.9
20260510012703 77 24 0.9 5.2 0.00 0.00 0.00 5 1017.9
20260510011803 78 26 0.0 3.5 0.00 0.00 0.00 6 1017.9
20260510010924 78 26 0.0 2.6 0.00 0.00 0.00 7 1017.9
20260510010003 78 0 0.0 0.0 0.00 0.00 0.00 8 1017.9
20260510005403 78 0 0.0 0.0 0.00 0.00 0.00 7 1017.9
20260510004503 78 21 0.0 2.6 0.00 0.00 0.00 7 1017.9
20260510003603 79 13 0.9 7.0 0.00 0.00 0.00 7 1017.9
20260510002703 80 22 1.7 7.0 0.00 0.00 0.00 6 1017.9
20260510001803 81 10 1.7 7.8 0.00 0.00 0.00 7 1017.9
20260510000924 82 19 3.5 10.4 0.00 0.00 0.00 5 1017.9
20260510000003 82 11 3.5 12.2 0.00 0.00 0.00 6 1017.9
20260509235403 82 18 2.6 7.8 0.00 0.00 0.00 6 1017.9
20260509234503 82 19 0.9 8.7 0.00 0.00 0.00 6 1017.9
20260509233603 82 9 1.7 8.7 0.00 0.00 0.00 5 1017.9
20260509232703 83 343 1.7 7.8 0.00 0.00 0.00 4 1017.9
20260509231803 83 355 0.9 9.6 0.00 0.00 0.00 5 1017.9
20260509230903 83 360 2.6 9.6 0.00 0.00 0.00 5 1017.9
20260509230003 83 345 1.7 9.6 0.00 0.00 0.00 4 1017.9
20260509225403 83 304 1.7 9.6 0.00 0.00 0.00 5 1017.9
20260509224503 84 221 2.6 11.3 0.00 0.00 0.00 4 1017.9
20260509223603 84 262 1.7 8.7 0.00 0.00 0.00 4 1017.9
20260509222703 83 210 1.7 11.3 0.00 0.00 0.00 6 1017.9
20260509221803 84 266 0.9 7.8 0.00 0.00 0.00 6 1017.9
20260509220903 84 206 2.6 16.5 0.00 0.00 0.00 6 1017.9
20260509220003 85 308 0.9 8.7 0.00 0.00 0.00 6 1017.9
20260509215403 84 338 2.6 13.0 0.00 0.00 0.00 7 1017.9
20260509214503 84 337 2.6 10.4 0.00 0.00 0.00 6 1017.9
20260509213603 83 323 2.6 13.0 0.00 0.00 0.00 7 1017.9
20260509212703 82 293 2.6 9.6 0.00 0.00 0.00 7 1017.9
20260509211824 83 317 2.6 11.3 0.00 0.00 0.00 8 1017.9
20260509210903 83 2 5.2 15.6 0.00 0.00 0.00 8 1017.9
20260509210024 83 354 2.6 7.8 0.00 0.00 0.00 8 1017.9
20260509205403 83 332 1.7 8.7 0.00 0.00 0.00 8 1017.9
20260509204503 83 307 2.6 9.6 0.00 0.00 0.00 9 1017.9
20260509202703 82 333 3.5 12.2 0.00 0.00 0.00 9 1017.9
20260509201803 83 324 4.3 15.6 0.00 0.00 0.00 8 1017.9
20260509200903 84 2 2.6 9.6 0.00 0.00 0.00 10 1017.9
20260509200024 83 308 1.7 8.7 0.00 0.00 0.00 10 1017.9
20260509195403 82 298 3.5 9.6 0.00 0.00 0.00 10 1017.9
20260509194503 83 356 2.6 12.2 0.00 0.00 0.00 10 1017.9
20260509193603 83 356 2.6 10.4 0.00 0.00 0.00 9 1017.9
20260509192703 83 333 4.3 12.2 0.00 0.00 0.00 9 1017.9
20260509191803 83 346 3.5 12.2 0.00 0.00 0.00 10 1017.9
20260509190903 82 304 1.7 7.8 0.00 0.00 0.00 10 1017.9
20260509190003 83 12 3.5 9.6 0.00 0.00 0.00 10 1017.9
20260509185403 83 26 3.5 9.6 0.00 0.00 0.00 12 1017.9
20260509184503 82 25 2.6 10.4 0.00 0.00 0.00 13 1017.9
20260509183603 81 20 4.3 10.4 0.00 0.00 0.00 13 1017.9
20260509182703 81 13 4.3 9.6 0.00 0.00 0.00 15 1017.9
20260509181803 81 12 6.1 12.2 0.00 0.00 0.00 14 1017.9
20260509180903 80 9 6.1 11.3 0.00 0.00 0.00 15 1017.9
20260509180003 80 9 4.3 10.4 0.00 0.00 0.00 15 1017.9
20260509175403 79 8 4.3 11.3 0.00 0.00 0.00 15 1017.9
20260509174503 79 15 5.2 10.4 0.00 0.00 0.00 15 1017.9
20260509173603 78 28 5.2 11.3 0.00 0.00 0.00 15 1017.9
20260509172703 78 41 4.3 9.6 0.00 0.00 0.00 15 1017.9
20260509171803 77 18 1.7 7.8 0.00 0.00 0.00 15 1017.9
20260509170903 76 61 0.9 3.5 0.00 0.00 0.00 17 1017.9
20260509170003 75 67 2.6 7.0 0.00 0.00 0.00 18 1017.9
20260509165403 75 71 1.7 7.8 0.00 0.00 0.00 19 1017.9
20260509164503 73 73 0.9 4.3 0.00 0.00 0.00 20 1017.9
20260509163603 73 65 0.9 3.5 0.00 0.00 0.00 20 1017.9
20260509162703 72 61 0.9 4.3 0.00 0.00 0.00 21 1017.9
20260509161803 72 59 2.6 7.8 0.00 0.00 0.00 23 1017.9
20260509160903 72 64 1.7 7.8 0.00 0.00 0.00 23 1017.9
20260509160003 70 65 0.9 4.3 0.00 0.00 0.00 23 1017.9
20260509155403 69 65 0.0 0.9 0.00 0.00 0.00 25 1017.9
20260509154503 69 65 0.9 3.5 0.00 0.00 0.00 24 1017.9
20260509153603 69 65 0.9 4.3 0.00 0.00 0.00 26 1017.9
20260509152724 69 65 0.9 4.3 0.00 0.00 0.00 25 1017.9
20260509151803 68 65 0.9 4.3 0.00 0.00 0.00 26 1017.9
20260509150903 67 65 0.9 4.3 0.00 0.00 0.00 27 1017.9
20260509150003 66 53 1.7 5.2 0.00 0.00 0.00 28 1017.9
20260509145424 66 43 1.7 5.2 0.00 0.00 0.00 29 1017.9
20260509144503 64 27 0.0 2.6 0.00 0.00 0.00 31 1017.9
20260509143603 62 27 0.0 2.6 0.00 0.00 0.00 31 1017.9
20260509142703 60 0 0.0 0.0 0.00 0.00 0.00 35 1017.9
20260509141803 59 0 0.0 0.0 0.00 0.00 0.00 36 1017.9
20260509140903 59 0 0.0 0.0 0.00 0.00 0.00 35 1017.9
20260509140015 58 0 0.0 0.0 0.00 0.00 0.00 37 1017.9
20260509135436 58 0 0.0 0.0 0.00 0.00 0.00 36 1017.9
20260509134515 58 0 0.0 0.0 0.00 0.00 0.00 39 1017.9
20260509133615 59 0 0.0 0.0 0.00 0.00 0.00 39 1017.9
20260509132715 59 0 0.0 0.0 0.00 0.00 0.00 38 1017.9
20260509131815 59 27 0.0 2.6 0.00 0.00 0.00 39 1017.9
20260509130915 59 27 0.9 2.6 0.00 0.00 0.00 35 1017.9
20260509130003 57 0 0.0 0.0 0.00 0.00 0.00 34 1017.9
20260509125415 57 0 0.0 0.9 0.00 0.00 0.00 35 1017.9
20260509124536 56 0 0.0 0.9 0.00 0.00 0.00 36 1017.9
20260509123615 55 0 0.0 0.0 0.00 0.00 0.00 37 1017.9
20260509122703 55 0 0.0 0.0 0.00 0.00 0.00 37 1017.9
20260509121836 55 27 0.0 3.5 0.00 0.00 0.00 36 1017.9
20260509120915 54 27 0.0 3.5 0.00 0.00 0.00 37 1017.9
20260509120003 54 27 0.0 2.6 0.00 0.00 0.00 38 1017.9
20260509115415 54 21 0.0 5.2 0.00 0.00 0.00 38 1017.9
20260509114515 55 21 1.7 7.0 0.00 0.00 0.00 38 1017.9
20260509113615 57 25 0.0 4.3 0.00 0.00 0.00 32 1017.9
20260509112715 58 0 0.0 0.0 0.00 0.00 0.00 30 1017.9
20260509111815 59 244 0.0 1.7 0.00 0.00 0.00 29 1017.9
20260509110903 59 244 0.9 6.1 0.00 0.00 0.00 29 1017.9
20260509110015 58 245 1.7 4.3 0.00 0.00 0.00 30 1017.9
20260509105436 57 246 1.7 4.3 0.00 0.00 0.00 31 1017.9
20260509104515 56 0 0.0 0.0 0.00 0.00 0.00 34 1017.9
20260509103615 56 0 0.0 0.0 0.00 0.00 0.00 33 1017.9
20260509102736 58 0 0.0 0.0 0.00 0.00 0.00 31 1017.9
20260509101815 59 0 0.0 0.0 0.00 0.00 0.00 29 1017.9
20260509100915 61 0 0.0 0.0 0.00 0.00 0.00 28 1017.9
20260509100015 63 0 0.0 0.0 0.00 0.00 0.00 26 1017.9
20260509095436 64 246 0.0 3.5 0.00 0.00 0.00 25 1017.9
20260509094515 65 246 0.9 4.3 0.00 0.00 0.00 21 1017.9
20260509093603 65 246 0.9 4.3 0.00 0.00 0.00 21 1017.9
20260509092715 65 246 2.6 6.1 0.00 0.00 0.00 21 1017.9
20260509091815 64 247 1.7 6.1 0.00 0.00 0.00 22 1017.9
20260509090915 62 250 0.0 3.5 0.00 0.00 0.00 24 1017.9
20260509090015 63 0 0.0 0.0 0.00 0.00 0.00 26 1017.9
20260509085403 64 250 0.0 0.9 0.00 0.00 0.00 25 1017.9
20260509084515 66 250 0.0 3.5 0.00 0.00 0.00 22 1017.9
20260509083615 67 250 1.7 4.3 0.00 0.00 0.00 20 1017.9
20260509082715 67 250 0.9 4.3 0.00 0.00 0.00 20 1017.9
20260509081815 68 250 0.9 3.5 0.00 0.00 0.00 19 1017.9
20260509080915 68 250 0.9 6.1 0.00 0.00 0.00 19 1017.9
20260509080004 68 251 0.9 7.0 0.00 0.00 0.00 19 1017.9
20260509075415 68 252 0.9 7.0 0.00 0.00 0.00 19 1017.9
20260509074515 69 256 0.9 3.5 0.00 0.00 0.00 19 1017.9
20260509073603 69 257 0.9 7.0 0.00 0.00 0.00 19 1017.9
20260509072715 69 245 0.9 7.0 0.00 0.00 0.00 19 1017.9
20260509071803 69 253 0.9 7.0 0.00 0.00 0.00 19 1017.9
20260509070903 69 248 0.9 6.1 0.00 0.00 0.00 19 1017.9
20260509070015 69 239 1.7 6.1 0.00 0.00 0.00 20 1017.9
20260509065403 69 237 0.9 3.5 0.00 0.00 0.00 20 1017.9
20260509064536 69 231 0.9 5.2 0.00 0.00 0.00 20 1017.9